Temp
5 4 3 3 2 2 1 0 -1 -2 -4 -5 -5 -5 -5 -5 -5 -6 -6 -7 -8 -8 -7 -7 -7 -6 -6 -5 -5 -6 -5 -4 -3 -1 0 0 1 2 3 3 5 5 6
4 3 3 2 2 1 0 -1 -2 -4 -5 -5 -5 -5 -5 -5 -6 -6 -6 -6 -7 -7 -7 -7 -7 -6 -5 -6 -5 -5 -4 -3 -3 -1 -0 1 0 2 3 4 5 5 5
3 3 2 2 1 0 -1 -2 -3 -5 -5 -5 -5 -5 -5 -6 -5 -6 -6 -6 -6 -7 -6 -6 -6 -5 -5 -5 -6 -3 -4 -2 -3 -1 0 0 1 1 2 3 4 4 5
3 3 2 1 0 -1 -1 -2 -4 -5 -5 -5 -6 -5 -5 -6 -5 -6 -6 -6 -6 -6 -6 -6 -6 -5 -5 -4 -3 -4 -4 -3 -3 -2 0 1 1 2 2 4 4 4 5
3 2 1 1 -0 -2 -2 -3 -5 -5 -5 -5 -6 -5 -5 -6 -6 -6 -6 -6 -6 -6 -6 -5 -5 -4 -4 -4 -3 -3 -3 -3 -3 -1 -0 1 2 2 1 4 4 5 5
2 1 1 0 -1 -2 -3 -4 -5 -5 -6 -5 -6 -6 -6 -5 -6 -6 -6 -6 -5 -5 -6 -5 -5 -4 -2 -3 -2 -3 -3 -2 -3 -1 -0 0 2 2 3 4 4 5 5
1 1 0 -1 -2 -3 -3 -4 -5 -5 -6 -6 -6 -6 -6 -6 -6 -6 -6 -6 -5 -5 -6 -6 -5 -4 -3 -3 -2 -2 -2 -2 -2 -0 0 1 2 2 3 3 4 5 7
1 0 -0 -1 -2 -3 -4 -5 -5 -6 -6 -6 -6 -6 -6 -6 -6 -6 -6 -6 -5 -5 -5 -5 -5 -4 -3 -3 -2 -2 -2 -1 -0 -1 0 1 1 2 3 4 5 6 6
0 -0 -1 -2 -2 -3 -4 -5 -6 -6 -6 -6 -6 -6 -7 -6 -6 -6 -6 -6 -5 -5 -5 -4 -4 -4 -3 -3 -2 -2 -1 -1 -1 -1 0 1 0 1 2 4 5 5 6
0 -0 -1 -2 -3 -4 -5 -5 -6 -6 -6 -6 -6 -7 -7 -7 -7 -7 -6 -6 -5 -5 -5 -4 -4 -3 -3 -3 -2 -1 -2 -0 -0 -1 0 1 1 2 3 5 5 7 7
0 -1 -2 -3 -3 -4 -5 -6 -6 -6 -6 -7 -7 -7 -7 -8 -7 -7 -6 -6 -6 -5 -5 -4 -4 -4 -3 -2 -2 -1 -0 -0 -0 -0 0 1 2 2 2 3 5 7 8
-0 -1 -2 -3 -4 -5 -6 -6 -6 -6 -7 -7 -7 -7 -8 -8 -8 -7 -7 -7 -7 -6 -5 -5 -4 -3 -3 -2 -1 -0 1 1 -0 0 0 1 1 2 2 3 5 6 6
-1 -2 -3 -3 -5 -5 -6 -6 -6 -6 -7 -7 -8 -8 -8 -8 -8 -8 -7 -7 -6 -6 -6 -5 -4 -4 -3 -1 -1 -0 -0 -0 0 1 1 2 1 3 2 3 5 6 6
-2 -3 -3 -4 -5 -6 -6 -6 -7 -6 -7 -8 -8 -8 -8 -8 -8 -8 -7 -7 -7 -6 -6 -5 -4 -4 -3 -2 -1 0 0 -0 0 1 2 1 2 3 2 4 5 6 6
-2 -3 -4 -5 -6 -6 -7 -7 -7 -7 -8 -8 -9 -9 -9 -9 -8 -9 -8 -7 -7 -6 -5 -5 -5 -4 -3 -2 -0 0 0 -0 1 2 2 2 3 2 3 4 5 6 6
-3 -4 -5 -5 -6 -6 -7 -6 -7 -7 -8 -8 -9 -9 -9 -9 -9 -9 -9 -8 -7 -7 -6 -5 -5 -4 -3 -1 -1 0 0 0 1 1 2 2 3 2 3 4 5 6 7
-4 -4 -5 -5 -6 -6 -6 -6 -6 -7 -8 -8 -9 -9 -9 -9 -9 -9 -8 -8 -7 -7 -6 -6 -5 -4 -3 -2 -0 0 0 -0 1 1 2 2 2 2 3 5 5 6 6
-4 -5 -5 -6 -6 -6 -7 -6 -7 -7 -7 -7 -9 -9 -9 -9 -9 -9 -9 -8 -8 -7 -6 -6 -5 -4 -3 -2 -0 0 1 0 1 2 2 3 2 3 4 5 6 6 6
-5 -5 -6 -6 -6 -7 -7 -7 -7 -7 -8 -8 -8 -9 -10 -10 -9 -9 -9 -8 -7 -7 -6 -5 -5 -4 -3 -2 -1 1 1 1 1 2 2 2 2 3 4 5 6 6 6
-5 -6 -6 -6 -6 -6 -7 -7 -8 -8 -8 -8 -9 -8 -10 -10 -9 -9 -9 -8 -8 -7 -6 -6 -5 -5 -4 -2 -1 -0 1 0 2 2 2 2 3 3 4 5 5 6 6
-5 -6 -6 -6 -7 -6 -7 -8 -8 -8 -8 -8 -9 -9 -9 -10 -9 -9 -9 -9 -8 -7 -7 -6 -5 -5 -4 -2 -1 -1 0 1 0 1 2 2 2 3 3 4 5 5 6
-6 -6 -7 -7 -7 -7 -8 -8 -8 -9 -8 -8 -9 -9 -9 -10 -10 -9 -9 -9 -8 -7 -6 -6 -5 -5 -4 -3 -1 -1 -0 0 0 0 1 1 3 2 3 4 3 4 5
-6 -6 -6 -7 -7 -8 -8 -8 -8 -8 -8 -9 -9 -9 -10 -10 -10 -10 -9 -9 -8 -8 -7 -6 -5 -5 -4 -3 -3 -0 0 1 0 1 1 2 2 2 3 3 3 4 4
-6 -6 -7 -7 -8 -8 -7 -8 -8 -8 -8 -9 -9 -10 -10 -10 -10 -10 -10 -9 -8 -7 -7 -6 -5 -4 -4 -3 -3 -1 0 0 1 1 1 2 2 2 3 3 3 3 3
-6 -7 -7 -8 -7 -7 -7 -8 -8 -8 -8 -8 -9 -10 -10 -10 -10 -10 -10 -9 -8 -8 -7 -6 -5 -5 -4 -4 -3 -2 -1 0 1 1 1 1 2 1 2 2 2 2 3
-7 -7 -8 -7 -7 -7 -8 -8 -8 -8 -8 -8 -9 -10 -10 -10 -10 -10 -10 -9 -8 -8 -7 -6 -6 -5 -4 -4 -3 -3 -1 0 1 2 2 2 1 2 3 2 2 2 2
Height
3074 3072 3070 3066 3062 3058 3053 3048 3042 3035 3030 3026 3022 3017 3012 3007 3002 2997 2991 2985 2978 2972 2968 2963 2958 2954 2950 2951 2951 2954 2960 2967 2969 2977 2979 3001 3014 3021 3034 3047 3060 3068 3078
3067 3065 3062 3059 3054 3050 3045 3039 3033 3027 3023 3020 3015 3010 3004 3000 2994 2989 2984 2979 2971 2964 2960 2954 2949 2946 2942 2944 2946 2951 2956 2960 2966 2967 2974 2986 3002 3014 3030 3042 3053 3060 3072
3060 3057 3054 3050 3046 3042 3037 3031 3025 3020 3017 3013 3008 3002 2998 2993 2987 2981 2976 2971 2965 2958 2953 2946 2941 2938 2935 2937 2940 2946 2948 2949 2958 2960 2971 2978 2993 3007 3020 3034 3045 3055 3064
3052 3050 3046 3042 3038 3034 3029 3023 3018 3013 3009 3005 3000 2995 2991 2985 2979 2974 2969 2964 2959 2953 2947 2940 2937 2934 2932 2936 2939 2942 2943 2948 2951 2954 2965 2971 2985 2998 3012 3025 3033 3045 3057
3043 3040 3037 3034 3030 3025 3021 3016 3011 3007 3002 2999 2993 2988 2983 2977 2973 2968 2962 2957 2952 2947 2942 2935 2930 2926 2927 2932 2934 2937 2939 2942 2943 2948 2954 2967 2979 2987 3000 3015 3028 3039 3051
3036 3032 3030 3026 3021 3018 3013 3009 3004 3000 2995 2990 2985 2980 2977 2971 2966 2962 2956 2950 2946 2942 2936 2932 2927 2923 2924 2928 2928 2932 2936 2939 2941 2946 2949 2957 2971 2985 2999 3009 3019 3028 3042
3028 3025 3021 3017 3013 3010 3006 3002 2998 2993 2988 2983 2978 2973 2968 2963 2959 2955 2950 2944 2940 2936 2931 2928 2925 2923 2922 2923 2925 2926 2932 2933 2939 2939 2945 2961 2971 2981 2995 3004 3013 3027 3039
3019 3016 3013 3009 3006 3003 2999 2995 2991 2986 2981 2975 2971 2966 2961 2955 2952 2948 2943 2938 2935 2930 2926 2921 2919 2918 2918 2916 2917 2918 2920 2925 2929 2935 2939 2956 2970 2981 2993 3004 3015 3028 3036
3011 3009 3006 3003 2999 2996 2993 2988 2983 2978 2973 2968 2963 2958 2953 2949 2945 2942 2937 2932 2928 2925 2921 2918 2914 2912 2913 2912 2909 2912 2916 2921 2926 2934 2941 2951 2962 2974 2987 2996 3004 3012 3026
3004 3001 2999 2996 2993 2989 2985 2980 2975 2970 2964 2961 2956 2952 2946 2942 2939 2936 2930 2925 2922 2918 2916 2912 2909 2907 2905 2906 2908 2909 2914 2919 2927 2931 2939 2945 2956 2967 2982 2991 3000 3012 3026
2996 2994 2991 2989 2985 2982 2977 2972 2967 2961 2956 2954 2950 2946 2941 2936 2932 2929 2925 2920 2916 2913 2910 2906 2904 2902 2901 2900 2899 2900 2905 2913 2923 2927 2935 2943 2953 2962 2975 2986 2999 3013 3022
2989 2987 2985 2982 2978 2974 2969 2965 2960 2954 2950 2946 2943 2938 2935 2931 2926 2922 2917 2914 2911 2908 2906 2904 2901 2898 2895 2894 2895 2898 2904 2911 2916 2922 2933 2940 2948 2960 2970 2981 2995 3011 3025
2982 2980 2977 2973 2969 2965 2961 2957 2952 2947 2942 2939 2935 2931 2927 2925 2920 2914 2911 2908 2906 2903 2901 2898 2895 2892 2891 2892 2892 2896 2903 2908 2914 2918 2925 2933 2946 2959 2969 2980 2992 3008 3019
2976 2972 2968 2964 2961 2958 2954 2949 2945 2941 2936 2931 2927 2923 2919 2918 2914 2909 2904 2903 2901 2898 2895 2893 2890 2887 2886 2885 2887 2892 2898 2905 2911 2917 2924 2934 2945 2956 2965 2975 2987 2999 3012
2968 2965 2961 2957 2953 2949 2946 2942 2938 2934 2929 2923 2920 2916 2912 2912 2909 2904 2900 2897 2896 2894 2891 2889 2886 2884 2881 2881 2884 2889 2895 2899 2905 2914 2921 2931 2942 2954 2962 2972 2986 2996 3008
2961 2957 2953 2949 2945 2942 2937 2934 2931 2927 2923 2920 2915 2910 2908 2906 2903 2900 2897 2894 2891 2890 2889 2886 2883 2881 2879 2879 2882 2886 2891 2895 2903 2911 2918 2928 2939 2949 2958 2969 2984 2995 3004
2952 2949 2945 2942 2937 2934 2930 2926 2922 2921 2918 2913 2910 2906 2904 2901 2899 2896 2893 2891 2889 2885 2884 2884 2881 2879 2878 2876 2877 2882 2887 2891 2898 2905 2914 2924 2936 2946 2955 2967 2980 2990 2999
2945 2942 2938 2933 2930 2925 2921 2918 2915 2912 2909 2908 2905 2902 2900 2896 2894 2892 2889 2887 2887 2885 2883 2882 2880 2877 2875 2873 2876 2880 2884 2888 2892 2901 2911 2922 2933 2942 2952 2964 2975 2985 2996
2938 2935 2930 2927 2923 2919 2916 2913 2909 2906 2903 2899 2898 2896 2894 2891 2890 2888 2886 2883 2881 2880 2879 2879 2877 2875 2873 2873 2875 2878 2881 2885 2890 2897 2908 2918 2929 2940 2949 2961 2974 2985 2995
2931 2928 2923 2919 2916 2913 2910 2906 2903 2901 2897 2893 2891 2889 2887 2886 2884 2884 2882 2880 2878 2876 2875 2875 2874 2872 2870 2868 2869 2872 2878 2882 2886 2894 2904 2914 2926 2938 2949 2959 2972 2982 2994
2924 2920 2916 2913 2909 2906 2903 2899 2897 2894 2891 2887 2885 2883 2882 2879 2878 2878 2877 2876 2875 2873 2873 2872 2872 2871 2871 2868 2868 2870 2873 2879 2884 2893 2898 2911 2921 2935 2948 2960 2972 2982 2992
2916 2913 2909 2906 2903 2900 2896 2892 2890 2887 2884 2881 2879 2877 2876 2874 2873 2872 2872 2872 2871 2870 2869 2870 2869 2868 2866 2866 2865 2867 2871 2876 2882 2890 2896 2907 2918 2934 2944 2955 2967 2977 2988
2909 2906 2903 2900 2897 2892 2888 2886 2885 2881 2878 2875 2873 2872 2871 2869 2868 2867 2867 2867 2868 2867 2866 2866 2865 2865 2864 2863 2861 2862 2865 2870 2876 2882 2893 2902 2913 2929 2939 2950 2961 2972 2983
2902 2900 2897 2894 2890 2886 2883 2881 2878 2875 2873 2871 2870 2868 2866 2864 2864 2864 2864 2863 2863 2863 2863 2863 2863 2864 2864 2863 2861 2860 2860 2864 2870 2879 2888 2898 2911 2923 2934 2946 2957 2968 2980
2897 2894 2892 2888 2884 2881 2879 2876 2872 2869 2868 2867 2866 2864 2862 2860 2860 2859 2860 2861 2861 2861 2861 2862 2862 2863 2863 2862 2862 2861 2860 2864 2867 2877 2887 2897 2907 2917 2928 2940 2951 2961 2972
2892 2890 2887 2883 2880 2878 2874 2870 2867 2865 2864 2863 2862 2860 2858 2857 2856 2856 2857 2857 2857 2858 2858 2860 2861 2862 2863 2863 2863 2862 2859 2861 2865 2873 2883 2891 2900 2910 2921 2933 2944 2954 2966
Wind_Speed
33 35 35 36 38 38 39 39 39 38 34 33 35 37 38 37 36 37 37 39 39 38 28 30 28 26 22 21 26 30 39 33 22 40 33 37 54 51 49 47 46 45 47
34 34 34 36 37 38 37 37 37 34 32 33 35 38 38 35 36 35 36 36 39 37 32 29 27 19 22 23 25 27 34 27 26 41 29 37 53 54 49 48 47 48 48
33 34 34 35 36 35 34 36 35 31 31 33 35 37 37 32 34 33 33 34 37 35 31 28 28 21 15 18 22 37 36 22 33 41 35 31 57 51 49 43 49 50 50
32 32 33 34 35 32 33 35 31 30 32 33 35 36 35 32 33 32 32 32 35 35 30 26 24 21 14 15 24 27 29 24 26 32 25 34 54 50 46 50 54 52 51
32 33 33 34 34 31 33 33 30 32 34 35 36 36 34 33 32 31 30 31 34 35 29 24 25 19 16 11 20 28 24 30 31 25 19 43 52 44 48 53 51 53 53
32 32 33 33 32 31 33 34 32 33 35 36 37 35 34 33 30 28 29 30 32 31 30 25 22 18 14 21 15 25 24 30 34 29 14 39 53 45 48 51 53 55 57
31 31 32 31 31 32 34 35 34 35 35 36 35 37 34 30 28 26 27 28 30 29 29 27 19 19 13 20 17 22 26 27 31 19 11 45 42 47 47 48 54 53 55
30 30 30 30 31 32 34 36 36 35 34 35 36 35 32 27 27 25 26 27 26 26 27 24 18 21 16 20 16 24 23 27 44 21 25 43 44 39 47 46 51 50 53
29 29 29 29 31 33 35 36 35 35 34 35 34 33 31 28 27 25 25 27 26 24 23 21 19 12 17 18 10 20 26 24 37 29 38 41 41 40 41 47 53 58 56
27 28 28 29 31 34 34 34 33 34 34 34 32 31 31 30 28 25 24 26 25 25 21 20 18 13 19 19 27 29 27 21 30 21 46 38 44 39 40 47 52 55 53
26 27 28 29 32 33 34 32 33 34 36 33 31 30 29 30 29 25 24 24 25 25 22 21 19 13 13 20 12 19 21 18 39 23 53 41 44 38 42 44 47 49 52
26 27 27 30 32 32 32 30 32 34 36 34 31 30 28 28 27 24 23 21 22 23 22 20 21 15 9 18 13 23 23 28 29 28 46 45 52 45 46 45 48 45 42
26 26 28 30 31 31 31 31 32 34 36 35 33 32 30 26 26 22 21 20 20 21 22 20 20 17 13 20 19 24 27 22 28 42 31 56 45 50 46 44 46 44 44
25 25 28 30 31 31 32 31 31 34 35 35 33 32 31 25 23 20 18 17 17 18 19 18 16 15 8 8 17 22 19 22 26 43 31 48 47 47 48 47 51 51 47
24 25 27 30 31 32 32 31 31 33 34 34 31 30 30 24 20 18 17 16 16 15 14 16 18 15 7 13 22 22 19 14 35 38 48 47 50 54 49 50 53 53 50
24 26 28 30 31 31 33 33 31 30 30 28 27 27 26 22 21 18 15 15 17 16 14 14 18 20 5 11 16 26 23 18 35 35 51 52 53 54 53 54 52 53 53
25 27 29 30 30 32 33 32 30 27 25 25 23 23 22 19 19 18 14 13 14 14 13 11 16 13 4 6 18 26 29 17 28 31 54 60 56 56 55 56 56 56 54
26 28 29 30 31 32 31 27 27 26 27 20 18 20 19 16 18 18 15 13 13 13 12 8 11 11 7 4 21 24 26 21 23 46 50 55 57 58 58 59 59 57 55
27 28 28 29 30 28 26 25 25 25 26 23 19 16 17 15 16 17 15 13 14 12 10 7 9 9 4 8 18 27 24 27 30 51 48 62 59 57 60 60 57 56 54
27 27 28 29 26 24 24 24 22 23 24 24 20 18 19 17 15 15 15 13 13 12 11 7 8 9 5 5 15 24 25 29 32 55 50 60 57 56 59 58 56 56 53
27 26 27 25 24 23 24 24 27 27 25 24 19 17 19 21 17 16 15 13 11 11 12 9 9 8 4 8 13 19 27 31 35 41 64 66 55 54 57 55 55 53 52
25 25 24 22 22 23 23 24 29 26 23 23 17 16 17 20 18 17 16 14 10 10 10 10 8 8 3 4 14 20 27 33 37 41 41 66 59 59 59 58 56 52 52
23 22 22 21 23 23 25 26 26 22 18 17 14 15 15 16 14 14 16 13 11 10 10 11 8 10 8 5 6 21 27 33 37 39 46 54 69 60 59 57 58 56 51
21 22 20 22 24 24 26 22 23 19 15 12 12 14 14 15 14 14 14 12 11 10 9 11 11 9 7 2 4 16 29 30 41 49 44 56 72 64 60 61 58 57 54
21 19 20 21 23 23 21 21 20 16 13 12 12 14 16 15 14 13 12 11 12 10 9 10 13 11 9 2 8 6 25 37 42 52 42 54 58 74 63 63 59 55 49
15 17 18 20 21 20 20 19 15 14 13 12 13 15 17 15 12 12 11 10 11 9 8 10 13 10 8 5 5 8 17 32 38 57 49 45 54 63 61 63 60 57 54
Wind_Direction
301 302 304 307 308 312 313 315 318 321 325 323 325 324 324 323 318 318 317 317 317 319 305 302 300 294 289 254 251 243 255 233 258 214 181 200 218 219 214 210 204 197 196
299 300 304 304 309 311 313 319 322 323 322 319 323 324 324 321 319 317 316 317 322 319 308 313 313 292 310 251 233 248 229 232 244 223 185 187 211 207 216 205 202 195 195
297 300 302 305 308 310 316 322 323 321 318 317 323 324 323 319 319 320 320 321 324 317 311 314 320 310 300 250 233 210 242 247 248 220 185 201 205 211 211 199 205 196 193
295 298 300 305 306 310 320 326 324 319 316 317 321 321 320 321 319 323 320 320 323 320 316 320 314 302 283 268 243 237 258 247 256 223 188 190 200 209 210 206 201 194 195
298 299 302 305 305 314 323 327 321 316 316 317 319 321 319 318 315 321 319 318 318 319 324 319 313 297 276 232 254 232 229 253 256 203 175 189 205 198 202 195 200 193 194
295 297 299 301 307 314 323 328 324 317 316 318 321 320 317 314 313 313 315 313 318 322 322 328 316 293 247 224 257 230 232 248 259 209 191 192 206 193 200 196 198 193 193
292 296 299 303 307 315 321 324 321 316 316 318 320 318 317 313 312 311 313 311 320 321 322 326 311 287 251 259 244 234 229 248 248 182 192 196 198 199 199 200 201 194 195
293 295 299 303 307 313 317 320 318 314 316 321 320 318 318 316 313 311 313 309 317 320 321 317 320 283 260 248 234 239 237 253 243 200 174 194 202 203 201 204 196 193 196
289 293 299 304 308 311 315 317 315 314 318 322 322 319 320 321 317 314 310 311 314 317 319 318 321 278 253 225 228 216 227 241 247 220 196 184 200 198 194 195 196 198 193
288 298 302 306 307 310 313 315 315 317 320 324 322 320 324 326 318 316 309 307 308 313 319 318 313 310 260 238 241 234 223 230 238 210 185 187 190 191 190 199 201 197 194
295 302 304 305 308 312 315 318 320 321 321 322 320 319 323 326 323 311 304 303 305 310 316 319 315 316 270 232 238 225 218 203 228 188 187 190 192 191 191 195 200 201 197
301 302 303 306 311 315 316 318 321 320 318 321 319 318 319 321 322 308 298 298 297 305 309 318 314 310 291 229 245 208 202 220 225 195 190 191 196 191 190 192 195 195 199
300 302 305 310 315 317 317 319 323 322 318 318 318 316 315 318 325 310 295 294 297 301 306 313 315 309 309 215 235 190 188 206 200 194 186 196 193 185 189 191 193 190 194
299 303 309 314 316 317 319 322 324 322 317 316 316 314 314 317 327 308 295 288 296 296 300 301 315 324 286 245 213 189 193 214 214 192 197 194 186 188 190 192 189 189 190
300 307 312 314 316 318 318 321 325 322 317 316 315 314 312 317 329 318 303 297 306 306 303 307 319 328 292 237 205 195 202 223 190 188 193 190 189 188 191 193 190 190 188
304 311 314 314 317 317 317 320 323 319 317 313 312 310 311 319 325 321 302 303 308 307 315 313 325 326 309 212 203 199 193 237 193 191 197 194 190 188 191 191 190 191 188
308 313 314 315 316 315 316 322 320 319 316 317 314 309 309 315 319 320 301 301 309 302 310 317 325 330 317 177 190 203 211 231 189 193 192 186 192 192 189 190 189 190 189
311 313 313 315 315 316 317 321 319 317 318 319 307 307 310 320 317 319 302 300 309 296 302 311 328 331 304 189 190 194 207 218 193 194 197 190 192 192 189 191 190 190 189
311 312 313 314 314 314 316 319 317 322 318 312 307 307 307 318 315 311 304 301 308 305 282 292 325 341 297 221 200 185 200 213 190 198 198 194 194 193 190 193 190 192 190
311 312 313 314 312 316 315 313 313 322 323 311 305 302 302 302 309 302 298 293 299 302 273 275 310 337 22 178 221 205 193 199 198 198 203 193 192 194 193 191 190 191 189
312 314 313 311 313 314 317 315 311 310 313 312 304 302 297 297 298 296 294 287 291 293 272 273 287 315 22 120 197 209 196 189 182 194 197 193 186 189 191 192 190 189 191
312 314 311 308 308 315 317 319 320 309 301 305 305 307 304 295 287 288 284 282 278 284 272 267 268 294 281 50 167 201 207 201 200 200 202 196 189 190 192 191 190 188 196
314 312 309 311 312 312 319 315 313 316 305 304 307 312 309 301 290 281 278 273 262 267 264 259 250 275 304 345 160 192 198 203 204 200 196 198 193 192 193 194 191 190 200
312 312 312 310 316 320 318 309 311 310 305 301 306 317 316 304 295 283 277 262 251 255 253 250 239 250 272 55 190 208 203 194 207 198 194 195 193 194 196 195 196 193 197
311 308 310 317 325 323 313 313 314 309 305 297 299 316 327 307 297 286 274 248 241 240 248 243 238 241 257 205 84 193 219 203 189 192 190 194 197 199 199 197 200 196 195
311 307 317 321 326 319 317 318 315 312 305 303 303 312 321 311 298 286 265 242 239 237 244 236 231 228 242 241 238 32 194 211 185 193 197 196 196 202 200 203 199 198 197